Login

Calgary

Pos Pair Lane Name Born Nation Time
1 3 - Marek Kania 1998 Poland 1:18.90
1 3 - Piotr Michalski 1994 Poland 1:18.90
1 3 - Damian Żurek 1999 Poland 1:18.90
2 5 - Merijn Scheperkamp 2000 Netherlands 1:18.93
2 5 - Hein Otterspeer 1988 Netherlands 1:18.93
2 5 - Kjeld Nuis 1989 Netherlands 1:18.93
3 3 - Christopher Fiola 1996 Canada 1:19.40
3 3 - Laurent Dubreuil 1992 Canada 1:19.40
3 3 - Antoine Gélinas-Beaulieu 1992 Canada 1:19.40
4 6 - Henrik Fagerli Rukke 1996 Norway 1:19.45
4 6 - Håvard Holmefjord Lorentzen 1992 Norway 1:19.45
4 6 - Odin By Farstad 1997 Norway 1:19.45
5 6 - Tao Yang 1997 China 1:19.51
5 6 - Ziwen Lian 1998 China 1:19.51
5 6 - Shiwei Wang 1996 China 1:19.51
6 5 - Austin Kleba 1999 USA 1:19.82
6 5 - Cooper McLeod 2001 USA 1:19.82
6 5 - Conor McDermott-Mostowy 1999 USA 1:19.82
7 4 - Niklas Kurzmann 2000 Germany 1:19.96
7 4 - Hendrik Dombek 1997 Germany 1:19.96
7 4 - Moritz Klein 2000 Germany 1:19.96
8 2 - Jun-Ho Kim 1995 South Korea 1:20.59
8 2 - Tae-Yun Kim 1994 South Korea 1:20.59
8 2 - Seonghyeon Park 1999 South Korea 1:20.59
9 2 - Yevgeniy Koshkin 2002 Kazakhstan 1:21.00
9 2 - Artur Galiyev 2000 Kazakhstan 1:21.00
9 2 - Alexandr Klenko 1994 Kazakhstan 1:21.00
10 1 - Yuma Murakami 1992 Japan 1:22.23
10 1 - Wataru Morishige 2000 Japan 1:22.23
10 1 - Kota Kikuchi 2000 Japan 1:22.23
11 4 - Francesco Betti 2000 Italy 2:07.98
11 4 - David Bosa 1992 Italy 2:07.98
11 4 - Alessio Trentini 1994 Italy 2:07.98

Info

What World Cup A-group
Discipline Team Sprint
Host Calgary
Nation Canada
Date Friday 16.Dec 2022
Calendar 2022/2023
Air Temp 16.6 C
Ice Temp -7.7 C
Humidity 33.0 %